TimePDT,TemperatureF,Dew PointF,Humidity,Sea Level PressureIn,VisibilityMPH,Wind Direction,Wind SpeedMPH,Gust SpeedMPH,PrecipitationIn,Events,Conditions,WindDirDegrees,DateUTC
1:53 AM,55.0,48.0,77,30.01,10.0,Calm,Calm,-,N/A,,Clear,0,2011-10-27 08:53:00
2:53 AM,53.1,46.9,80,30.01,10.0,East,3.5,-,N/A,,Clear,90,2011-10-27 09:53:00
3:53 AM,52.0,46.9,83,29.99,10.0,Calm,Calm,-,N/A,,Clear,0,2011-10-27 10:53:00
4:53 AM,51.1,46.0,83,29.99,10.0,Calm,Calm,-,N/A,,Clear,0,2011-10-27 11:53:00
5:53 AM,50.0,45.0,83,29.99,10.0,Calm,Calm,-,N/A,,Clear,0,2011-10-27 12:53:00
6:53 AM,50.0,46.0,86,29.98,9.0,Calm,Calm,-,N/A,,Clear,0,2011-10-27 13:53:00
7:53 AM,52.0,46.9,83,29.99,8.0,Calm,Calm,-,N/A,,Clear,0,2011-10-27 14:53:00
8:53 AM,62.1,45.0,53,30.00,10.0,NW,5.8,-,N/A,,Clear,310,2011-10-27 15:53:00
9:53 AM,70.0,43.0,38,30.01,10.0,NW,4.6,-,N/A,,Clear,310,2011-10-27 16:53:00
10:53 AM,75.0,36.0,24,30.02,10.0,Calm,Calm,-,N/A,,Clear,0,2011-10-27 17:53:00
11:53 AM,78.1,33.1,19,30.01,10.0,West,4.6,-,N/A,,Clear,270,2011-10-27 18:53:00
12:53 PM,78.1,37.9,24,29.99,10.0,Calm,Calm,-,N/A,,Clear,0,2011-10-27 19:53:00
1:53 PM,79.0,43.0,28,29.95,10.0,Variable,5.8,-,N/A,,Clear,0,2011-10-27 20:53:00
2:53 PM,79.0,37.0,22,29.94,10.0,SSW,6.9,-,N/A,,Clear,210,2011-10-27 21:53:00
3:53 PM,80.1,33.1,18,29.93,10.0,Variable,4.6,-,N/A,,Clear,0,2011-10-27 22:53:00
4:53 PM,78.1,30.0,17,29.94,10.0,SSW,6.9,-,N/A,,Clear,210,2011-10-27 23:53:00
5:53 PM,73.0,28.0,19,29.95,10.0,SW,3.5,-,N/A,,Clear,220,2011-10-28 00:53:00
6:53 PM,70.0,36.0,29,29.97,10.0,Calm,Calm,-,N/A,,Clear,0,2011-10-28 01:53:00
7:53 PM,68.0,41.0,37,29.99,10.0,NW,3.5,-,N/A,,Clear,320,2011-10-28 02:53:00
8:53 PM,62.1,42.1,48,29.99,10.0,Calm,Calm,-,N/A,,Clear,0,2011-10-28 03:53:00
9:53 PM,60.1,41.0,49,30.00,10.0,Calm,Calm,-,N/A,,Clear,0,2011-10-28 04:53:00
10:53 PM,57.9,44.1,60,30.01,10.0,Calm,Calm,-,N/A,,Clear,0,2011-10-28 05:53:00
11:53 PM,55.0,42.1,62,30.01,10.0,Calm,Calm,-,N/A,,Clear,0,2011-10-28 06:53:00